Hourly Weather Roundup
Issued by NWS Central Illinois

Home | Current Version | Previous Version | Text Only | Print | Product List | Glossary On
Versions: 1 2 3 4 5 6 7 8 9 10 11 12 13 14 15 16 17 18 19 20 21 22 23 24 25 26 27 28 29 30 31 32 33 34 35 36 37 38 39 40 41 42 43 44 45 46 47 48 49 50
000
NZUS43 KILX 212110
HWRILX

AREA WEATHER ROUNDUP
NATIONAL WEATHER SERVICE, LINCOLN IL
400 PM CDT TUE OCT 21 2014


CITY           SKY/WX    TMP DP  RH WIND       PRES   REMARKS
BLOOMINGTON    SUNNY     59  39  47 N10       30.16S
CHAMPAIGN      MOSUNNY   59  39  47 NE13G22   30.15R
DECATUR        SUNNY     60  39  45 N12       30.14S
FLORA          SUNNY     63  40  43 N10       30.12R
GALESBURG      SUNNY     59  40  49 NE9       30.16S
JACKSONVILLE   SUNNY     63  40  42 N7        30.14S
LACON          SUNNY     58  38  47 NE6       30.16S
LAWRENCEVILLE  MOSUNNY   60  42  51 N13       30.12R
LITCHFIELD     SUNNY     61  41  48 N9        30.13S
$$


CITY           SKY/WX    TMP DP  RH WIND       PRES   REMARKS
LINCOLN        SUNNY     61  40  46 N8G16     30.14S HAZE
MACOMB         SUNNY     61  39  44 NE6       30.17S
MATTOON        SUNNY     59  38  45 N8G20     30.12R
MT CARMEL AP   MOSUNNY   63  41  45 N8G17     30.11R
OLNEY-NOBLE AP MOSUNNY   61  41  48 N9        30.12R HAZE
PARIS          CLOUDY    58  40  51 N7        30.14R
PEORIA         SUNNY     61  38  42 NE8       30.16S
PONTIAC        NOT AVBL
RANTOUL        CLOUDY    57  39  51 NE12G17   30.16S
ROBINSON       MOSUNNY   63  41  45 N12G18    30.13S
SPRINGFIELD    SUNNY     62  40  44 N9        30.14S
TAYLORVILLE    MOSUNNY   61  37  41 N9        30.13S
$$

...REGIONAL REPORTS...


CITY           SKY/WX    TMP DP  RH WIND       PRES   REMARKS
CHICAGO O`HARE CLOUDY    49  39  68 N14       30.19S
KANKAKEE       CLOUDY    52  43  71 N13G21    30.18R
MOLINE         SUNNY     59  39  47 E8        30.16F
MOUNT VERNON   SUNNY     64  45  48 N7        30.11S
PITTSFIELD       N/A     65  43  46 NE9       30.14S HAZE
QUINCY         SUNNY     63  41  44 NE8       30.13R
ROCKFORD       PTSUNNY   53  37  54 NE13      30.22S
$$


CITY           SKY/WX    TMP DP  RH WIND       PRES   REMARKS
BURLINGTON     SUNNY     61  42  49 NE10      30.15S
CEDAR RAPIDS   SUNNY     59  41  51 E10       30.15S
DES MOINES     MOSUNNY   66  44  45 E12       30.11S
KIRKSVILLE     SUNNY     66  46  48 E5        30.13S
OTTUMWA        NOT AVBL
ST LOUIS       SUNNY     67  43  41 NE8       30.11S
$$


CITY           SKY/WX    TMP DP  RH WIND       PRES   REMARKS
TERRE HAUTE    CLOUDY    57  38  48 NE12G18   30.13R
EVANSVILLE     MOSUNNY   63  42  46 N13G20    30.10R
INDIANAPOLIS   PTSUNNY   55  41  59 NW13      30.10R
LAFAYETTE      CLOUDY    53  43  68 N9G18     30.13R
MADISON        CLOUDY    48  37  65 E8        30.22F
MILWAUKEE      PTSUNNY   49  38  65 NE10      30.22R
$$





USA.gov is the U.S. government's official web portal to all federal, state and local government web resources and services.